KUIPER-00146

导读 | 豆包AI

KUIPER-00146是美国亚马逊柯伊伯(Kuiper)低轨宽带星座的卫星,于2025年10月14日发射。该星座计划部署超3000颗卫星,旨在为全球欠发达地区提供高速低延迟宽带服务,卫星工作在Ka频段,采用相控阵天线技术,可动态调配容量,依托亚马逊地面基础设施提供稳定可靠的互联服务,是全球低轨卫星互联网建设的重要组成部分。

基本信息
目录编号:
65967
目录名称:
KUIPER-00146
国际标识:
2025-228W
轨道中心:
EARTH
卫星名称:
KUIPER-00146
卫星全名:
KUIPER-00146
卫星状态:
在轨 (已飞行140 天)
发射日期:
2025-10-14 UTC
国别 :
美国 (US)
星等 :
--
轨道信息
数据来源 国际轨道数据
星历时间: 2026-03-02T22:08:17+0800
13小时前
查看轨道信息
半长轴: 7018.704km
偏心率: 0.0001161
轨道倾角: 51.903°
近地点辐角 102.854°
升交点赤经 14.237°
平近点角 257.255°
近地点: 639.752km
远地点: 641.382km
周期: 97.532分钟
每日圈数: 14.764454
详细信息
使用方式:
暂无
2D轨道图
3D轨道图
轨道高度分析图
轨道倾角分析图
轨道综合分析图
查看轨道综合分析图